Flag for China Weather past 2 weeks in Taiyuan, Shanxi, China

19 °F

Ice fog.

Feels Like: 19 °F
Forecast: 9 / 28 °F
Wind: 1 mph from Southeast

Location: Taiyuan Airport

Current Time: Nov 25, 2015 at 6:18:12 AM

Latest Report: Nov 25, 2015 at 5:30 AM

Visibility: 1 mi

Pressure: 30.21 "Hg (27.30 "Hg at 790m altitude)

Humidity: 93%

Dew point: 18 °F

Location of TaiyuanLocation

Historic Weather in Taiyuan — Graph


Taiyuan temperature yesterday

Maximum temperature yesterday: 28 °F (at 12:00 AM)
Minimum temperature yesterday: 16 °F (at 11:30 PM)
Average temperature yesterday: 23 °F

Past Weeks' High & Low Weather Summary

High57 °F (Nov 10, 2:00 PM)93% (Nov 10, 5:00 AM)30.48 "Hg (Nov 10, 5:00 AM)
Low16 °F (Nov 24, 11:30 PM)35% (Nov 12, 4:00 PM)29.92 "Hg (Nov 14, 2:30 PM)
Average41 °F76%30.20 "Hg
* Reported Nov 10 4:00 AM — Nov 25 4:30 AM, Taiyuan, Weather by CustomWeather, © 2015

Note: Actual official high and low records may vary slightly from our data, if they occured in-between our weather recording intervals... More about our weather records


Taiyuan weather history for previous 24 hours

Time TempWeatherWind HumidityBarometerVisibility
4:30 AM
Wed, Nov 25
19 °FIce fog.1 mph86%30.24 "Hg1 mi
4:00 AM18 °FIce fog.No wind93%30.24 "Hg1 mi
3:30 AM18 °FIce fog.1 mph93%30.27 "Hg1 mi
3:00 AM18 °FIce fog.1 mph86%30.27 "Hg2 mi
2:30 AM18 °FIce fog.1 mph86%30.30 "Hg2 mi
2:00 AM18 °FIce fog.3 mph93%30.30 "Hg2 mi
1:30 AM16 °FIce fog.1 mph93%30.30 "Hg2 mi
1:00 AM18 °FIce fog.1 mph86%30.33 "Hg2 mi
12:30 AM18 °FIce fog.3 mph93%30.33 "Hg2 mi
12:00 AM16 °FIce fog.1 mph93%30.33 "Hg2 mi
11:30 PM
Tue, Nov 24
16 °FIce fog.1 mph93%30.36 "Hg2 mi
11:00 PM18 °FIce fog.1 mph86%30.36 "Hg2 mi
10:30 PM19 °FIce fog.1 mph86%30.36 "Hg2 mi
10:00 PM19 °FIce fog.3 mph79%30.39 "Hg2 mi
9:30 PM19 °FIce fog.3 mph86%30.39 "Hg2 mi
9:00 PM19 °FIce fog.3 mph86%30.39 "Hg2 mi
8:30 PM21 °FIce fog.3 mph86%30.39 "Hg1 mi
8:00 PM23 °FIce fog.1 mph86%30.42 "Hg1 mi
7:30 PM19 °FIce fog.1 mph93%30.39 "Hg2 mi
7:00 PM21 °FIce fog.1 mph86%30.39 "Hg2 mi
6:30 PM21 °FIce fog.1 mph86%30.39 "Hg3 mi
6:00 PM23 °FIce fog.1 mph80%30.39 "Hg3 mi
5:30 PM25 °FClear.1 mph80%30.39 "Hg4 mi
5:00 PM25 °FClear.3 mph80%30.39 "Hg4 mi
4:30 PM25 °FClear.3 mph80%30.39 "Hg4 mi
4:00 PM27 °FClear.1 mph80%30.39 "Hg4 mi
3:30 PM27 °FClear.1 mph74%30.39 "Hg4 mi
3:00 PM28 °FClear.1 mph74%30.39 "Hg4 mi
2:00 PM27 °FClear.3 mph80%30.39 "Hg4 mi
1:30 PM27 °FClear.6 mph74%30.42 "Hg5 mi
1:00 PM25 °FClear.8 mph80%30.42 "Hg5 mi
12:30 PM25 °FLight snow. Clear.6 mph86%30.45 "Hg5 mi
11:30 AM23 °FLight snow. Ice fog.8 mph86%30.45 "Hg2 mi
11:00 AM23 °FLight snow. Ice fog.10 mph86%30.48 "Hg2 mi
10:30 AM23 °FLight snow. Ice fog.10 mph80%30.48 "Hg2 mi
10:00 AM23 °FLight snow. Ice fog.13 mph80%30.48 "Hg2 mi
9:30 AM21 °FLight snow. Ice fog.13 mph93%30.48 "Hg2 mi
9:00 AM21 °FLight snow. Ice fog.13 mph86%30.48 "Hg1 mi
8:30 AM21 °FLight snow. Ice fog.13 mph86%30.48 "Hg1 mi
8:00 AM21 °FLight snow. Ice fog.15 mph86%30.48 "Hg1 mi
7:30 AM19 °FSnow. Ice fog.15 mph93%30.48 "Hg1 mi
6:30 AM21 °FLight snow. Ice fog.15 mph93%30.45 "Hg1 mi
6:00 AM21 °FLight snow. Ice fog.10 mph93%30.48 "Hg1 mi
Weather by CustomWeather, © 2015

See weather overviewHow to use our weather pages